Tracking 19706 objects as of 17-Jun-2019
HD Live streaming from Space Station
objects crossing your sky now

DELTA 1 DEB

Track DELTA 1 DEB now!
10-day predictions


NORAD ID: 12168
Int'l Code: 1978-026H
Perigee: 798.7 km
Apogee: 1,056.5 km
Inclination: 98.9 °
Period: 103.4 minutes
Semi major axis: 7298 km
RCS: 0.1563 m2 (medium)
Launch date: March 5, 1978
Source: United States (US)
Launch site: AIR FORCE WESTERN TEST RANGE (AFWTR)

Note: This is SATELLITE DEBRIS
aabbcc
Your satellite tracking list
Your tracking list is empty




NASA's NSSDC Master Catalog

Two Line Element Set (TLE):
1 12168U 78026H   19167.71262572 -.00000001 +00000-0 +28773-4 0  9990
2 12168 098.9421 068.7234 0176595 355.3239 004.6265 13.92339940944717
Source of the keplerian elements: AFSPC